Zurück zum Katalog

ONEWEB-0706

AktivKommunikationPO
NORAD 61611·PAYLOAD·🇬🇧 United Kingdom

Gestartet Oct 20, 2024 von Vandenberg Space Force Base

Loading…

Nächste Überflüge (nächste 24 Stunden)

TLE

AktuellSource: CelesTrak SupGP

Epoche: Sep 14, 2026, 15:35 UTC

1 61611C 24188T   26257.64979583  .00002105  00000+0  60379-2 0  2572
2 61611  87.8920  18.4550 0001148 102.8656   7.0942 13.10375037    19

Verfolge ONEWEB-0706 in Echtzeit mit AllMySat

Download on the App Store